Columbia Gorge Regional the Dalles Municipal Airport
KDLS : now visible

Airfield :











YOU CAN JOIN US ON...

 
LOGIN :

Register | Disclaimer

   EN    FR    IT 

 









Legend :    VFR   Marginal VFR   IFR   Intensive IFR   Very Intensive IFR
Visi :
Ceiling :
>= 8 km
>= 3000ft
5 to 8 km
1000 to 3000 ft
1500m to 5 km
500 to 1000 ft
800 to 1500m
200 to 500 ft
< 800m
< 200 ft
Symbols :   Thunderstorms  Fog  Heavy snow  Heavy precipitations  Wind > 20 kt






- Airport Elevation : 247 ft


KDLS - Columbia Gorge Regional the Dalles Municipal

CURRENT METAR :
  • 070953Z AUTO 30005KT 10SM CLR 09/02 A3016 RMK AO2 SLP212 T00890022

EXPIRED METARs :
  • 070853Z AUTO 30011KT 10SM SCT060 11/03 A3014 RMK AO2 SLP206 T01060033 51021

TAF KDLS
Valid from the 07 at 06:00 until the 08 at 06:00 UTC


070520Z 0706/0806 29015G24KT P6SM SCT060 SCT250
FM071200 30010KT P6SM BKN050 BKN090
FM071800 30018G29KT P6SM SCT050 BKN100
FM080300 30019G27KT P6SM SCT250
KZSE FIR / North America



MET'MAP, your aeronautical weather chart ! - Copyright ORBIFLY December 2007 - Disclaimer

ORBIFLY MET'MAP TEAM :

Programming & Development : Alexandra Zaïnal
Concept & original design : Baudouin d'Aumeries
Assistance for programming : Marc-Olivier Méhu
Technical & hardware support : Manuel Goepfert

Contact : metmap@orbifly.com




SOURCES & CREDITS :

   NOAA       Earth
Advisory